Location: Julian California
(33.0790°N, 116.6010°W)
Time: 12:05:33
(UTC-07:00)

Daily predictions for brighter satellites

Satellite Brightness Start Highest point End
(mag) Time Altitude Azimuth Time Altitude Azimuth Time Altitude Azimuth
USA 238 DEB 4.4 18:53:17 10° SW 19:00:13 60° WNW 19:07:10 10° NNE
USA 238 4.4 18:53:22 10° SW 19:00:19 61° WNW 19:07:17 10° NNE
ATLAS CENTAUR R/B 2.3 18:57:15 10° N 19:00:48 27° NE 19:04:06 10° ESE
Abrixas rocket 2.5 18:57:39 10° NW 19:00:59 70° SW 19:04:17 10° SE
SL-19 R/B 4.4 18:57:41 10° SSE 19:03:08 61° ENE 19:08:49 10° N
Atlas Centaur 2 3.3 18:54:46 10° W 19:03:19 72° S 19:11:15 10° ESE
Yuri Rocket 4.4 19:00:22 10° WSW 19:04:12 29° SSW 19:07:48 10° SE
Cosmos 1844 4.1 19:00:42 10° NNW 19:06:15 70° WSW 19:11:45 10° S
ALOS 4.0 19:05:50 10° E 19:08:12 14° ENE 19:10:35 10° NE
Cosmos 1437 3.2 19:06:29 10° N 19:09:35 39° E 19:12:38 10° SSE
FREGAT/IRIS 3.5 19:07:10 10° SE 19:09:53 29° ENE 19:12:37 10° NNE
ASTRO E2 3.0 19:06:06 10° WSW 19:10:03 58° S 19:13:54 11° E
Cosmos 1766 3.6 19:07:36 10° SSE 19:11:21 44° E 19:15:08 10° NNE
Cosmos 1844 Rocket 4.2 19:09:32 10° NW 19:14:45 41° WSW 19:19:57 10° S
Spot 2 Rocket 4.1 19:13:00 10° SE 19:17:33 35° ENE 19:22:06 10° N
Cosmos 2237 Rocket 3.6 19:13:39 10° SW 19:19:00 42° WNW 19:24:21 10° N
OAO 3 Rocket 3.2 19:14:44 10° WSW 19:19:29 88° NNW 19:23:54 12° ENE
NOAA 12 4.1 19:15:49 10° SSE 19:20:58 61° ENE 19:26:09 10° N
Helios 1A 3.8 19:18:33 10° SE 19:22:10 30° ENE 19:25:49 10° N
Cosmos 2056 Rocket 3.7 19:18:24 10° N 19:23:43 55° ENE 19:29:00 10° SSE
Cosmos 2346 Rocket 4.4 19:17:43 10° N 19:23:48 85° E 19:29:50 10° S
COSMO-SKYMED 1 4.3 19:20:22 10° N 19:24:21 37° WNW 19:28:19 10° SW
SAR-Lupe-1 4.0 19:22:50 10° SSE 19:26:23 88° ENE 19:29:56 10° NNW
Cosmos 1953 3.0 19:24:38 10° SSE 19:28:07 30° E 19:31:38 10° NNE
ATLAS CENTAUR R/B 3.2 19:26:30 10° SW 19:30:34 81° NW 19:43:05 10° NE
ATLAS 5 CENTAUR R/B 1.8 19:26:01 10° SSW 19:30:35 58° ESE 19:35:29 10° NE
CZ-4C R/B 4.2 19:27:04 10° WSW 19:31:35 28° NW 19:36:33 10° N
Aureole 2 Rocket 3.2 19:27:22 10° SSW 19:31:43 75° WNW 19:36:05 10° NNE
NOSS 3-2 (C) 3.4 19:26:21 10° SSW 19:32:18 79° ESE 19:38:43 10° NNE
Cosmos 1371 Rocket 4.1 19:27:57 10° NNW 19:33:16 87° WSW 19:38:36 10° SSE
ASTEX 1 4.4 19:30:04 10° NE 19:33:57 23° E 19:37:50 10° SE
CENTAUR R/B 3.6 19:32:01 10° SSE 19:35:48 18° ESE 19:36:16 17° E
SL-16 R/B 2.5 19:31:54 10° SSW 19:37:33 71° WNW 19:43:15 10° NNE
HJ-1C 3.3 19:40:16 10° SSE 19:43:34 65° ENE 19:46:54 10° N
Cosmos 1805 3.4 19:40:57 10° SSE 19:44:43 49° E 19:48:31 10° NNE
Cosmos 2034 Rocket 4.0 19:39:07 10° S 19:45:14 63° E 19:51:26 10° NNE
Cosmos 1766 Rocket 3.7 19:41:53 10° N 19:46:05 46° E 19:50:05 11° SSE
H-2A R/B 3.9 19:47:28 24° ENE 19:47:28 24° ENE 19:50:33 10° NNE
Cosmos 1464 Rocket 4.0 19:42:05 10° S 19:48:22 87° W 19:54:36 10° N
Cosmos 1624 Rocket 4.2 19:46:01 10° NNW 19:51:12 73° WSW 19:56:20 10° S
Meteor 1-29 3.0 19:49:31 10° N 19:53:02 83° WNW 19:56:30 10° SSW
Cosmos 724 4.2 19:48:36 10° SSW 19:54:24 68° ESE 20:00:22 10° NNE
SL-8 R/B 3.8 19:50:35 10° SSW 19:55:12 50° SE 19:57:10 30° ENE
Cosmos 1544 3.2 19:55:55 10° SSE 19:59:30 49° E 20:03:07 10° NNE
Cosmos 1378 3.8 19:55:56 10° NNW 19:59:35 56° W 20:03:13 10° S
METEOR-M 4.4 19:58:55 10° S 20:04:13 69° WSW 20:09:33 10° NNW
Abrixas 3.5 20:01:58 10° SW 20:03:58 34° S 20:03:58 34° S
Cosmos-2242 2.9 20:02:53 10° S 20:07:12 90° ESE 20:11:36 10° N
Cosmos 2278 Rocket 4.0 20:02:21 10° NW 20:07:16 31° WSW 20:12:11 10° SSW
Cosmos 1076 Rocket 3.7 20:03:33 10° N 20:07:52 73° W 20:12:11 10° S
Cosmos 1758 3.5 20:04:51 10° SSW 20:08:52 72° W 20:12:58 10° N
FENGYUN 3A 3.6 20:07:09 20° SSE 20:10:50 66° ENE 20:16:10 10° N
Cosmos 2297 4.0 20:05:41 10° NNW 20:11:18 66° WSW 20:16:50 10° S
USA 215 4.5 20:06:32 10° NNE 20:12:29 39° NW 20:18:26 10° WSW
ISS -0.9 20:10:28 10° SSW 20:11:02 14° SSW 20:11:02 14° SSW
Timation 1 Rocket 4.2 20:07:46 10° NNW 20:13:46 87° ENE 20:17:41 23° SSE
Helios 1B rocket 4.0 20:10:50 10° N 20:14:36 36° WNW 20:18:23 10° SW
Cosmos 1452 Rocket 3.3 20:15:15 10° NNW 20:20:31 77° ENE 20:22:15 43° SSE
CZ-4B DEB 3.7 20:21:56 45° NNW 20:21:56 45° NNW 20:24:18 10° NNW
Resurs 01 Rocket 2.7 20:17:17 10° S 20:21:30 43° W 20:25:46 10° NNW
Cosmos 1408 Rocket 4.1 20:17:25 10° NNW 20:21:40 56° W 20:25:52 10° S
OAO 1 Rocket 4.4 20:16:23 10° W 20:21:45 78° N 20:23:07 51° ENE
SeaSat 1 2.3 20:19:17 10° NNE 20:24:14 89° ESE 20:29:10 10° SSW
Cosmos 1603 3.8 20:18:54 10° SSW 20:24:36 79° WNW 20:30:22 10° NNE
Resurs 1-3 4.3 20:20:58 10° S 20:25:13 52° W 20:29:31 10° NNW
Cosmos 2369 Rocket 3.8 20:22:50 10° N 20:25:24 19° NE 20:25:24 19° NE
SEDSat Delta rocket 4.0 20:21:55 10° W 20:28:43 79° S 20:30:30 52° ESE
GPS 2-04 Rocket1 4.3 20:35:11 10° WSW 20:36:51 26° SW 20:36:51 26° SW
ATLAS CENTAUR R/B 3.7 20:36:49 10° WNW 20:39:36 18° WSW 20:41:34 13° SW
Cosmos 1420 Rocket 4.2 20:39:14 10° NNW 20:43:37 57° NNE 20:43:37 57° NNE
ALOS 3.1 20:43:08 29° SSW 20:45:11 48° W 20:49:42 10° NNW
Cosmos 1743 Rocket 4.2 20:44:11 10° NNW 20:47:52 54° NW 20:47:52 54° NW
ASTRO E2 4.3 20:46:35 10° W 20:48:52 32° WSW 20:48:52 32° WSW
BREEZE-M DEB (TANK) 3.9 20:35:09 10° NW 20:50:36 61° SW 20:51:56 49° S
Atlas Centaur 2 3.4 20:45:01 10° W 20:52:54 46° SSW 20:54:18 42° S
OAO 3 Rocket 4.2 20:58:24 10° W 21:01:43 43° WNW 21:01:43 43° WNW
Cosmos 1092 Rocket 4.2 21:03:47 10° NNW 21:09:55 66° W 21:10:19 64° WSW
Cosmos 1634 Rocket 4.4 21:18:19 53° WSW 21:19:10 58° W 21:25:19 10° N
CENTAUR R/B 3.3 21:19:47 10° SW 21:34:48 - NNE 21:23:41 41° WSW
